CZ-2D DEB, 44619

Orbit data source: Space-Track

CZ-2D DEB, 44619 is space debris in SSO originally from a launch on Sat, 02 Jun 2018 UTC launched from the Jiuquan Satellite Launch Center, China (JSC). Debris objects in space refer to the collection of defunct objects orbiting the Earth. Examples of debris include non-operational satellites, rocket bodies, and fragments generated from explosions, collisions, or faulty payload assembly.

Loading next visibility...
Identifier
44619, 2018-048F
Orbit
SSO
Last TLE update
9 hours ago
Origin
Manufacturer
CALT
Mission
Spacecraft
Bus & Motor
Unknown
Mass
1 kg wet, 1 kg dry
Launch date (UTC)
2018-06-02 (7 years ago)
Launch vehicle
Unknown
Launch site
Jiuquan Satellite Launch Center, China (JSC)
Object type
Payload
Rocket body
Debris
Shape & HBR
Cone, 0.2 m
Radar Cross Section
0.025 m², Small (<0.1 m²)

Expand to show TLE details & history

TLE from 9 hours ago
0 CZ-2D DEB
1 44619U 18048F   25128.88878153  .00007826  00000-0  66032-3 0  9994
2 44619  98.2911 303.7798 0015549 106.1464 254.1469 14.98354060370998
Epoch: 2025-05-08T21:19Z
Definitive object data (Epoch: 2025-05-08T21:19:50.724Z)
Latitude
-0.00006°
Longitude
116.86565°
Altitude
577.984 km
Speed
7.57 km/s
True Right ascension
20h 15m 07s
True Declination
0° 00' 00"
Sunlit
Object was in daylight at TLE epoch
Visualization TLE readout
Latitude
46.72678°
Longitude
-53.89839°
Altitude
569.627 km
Speed
7.586 km/s
Apparent Right ascension
05h 24m 40s
Apparent Declination
8° 59' 33"
Sunlit
Object is in daylight
Visualization observer readout
Local Sidereal Time
14:04:46
Azimuth
304.892° NW
Elevation
-22.762°
Doppler factor
1
Orbital elements
Apogee altitude
579.818 km
Perigee altitude
558.214 km
Semi-major axis
6,947.153 km
Eccentricity
0.0015549
Inclination
98.2911°
RAAN
303.7798°
Arg. of periapsis
106.1464°
True anomaly
253.97559°
Mean anomaly
254.1469°
Eccentric anomaly
254.06124°
Mean motion
3.74829 °/min
BSTAR
0.00066032
Orbital period
96.04 mins
Loading maneuver chart data...
Loading SW <> Apogee altitude chart data...
Loading historical data...
Loading historical data...
Loading historical data...
Loading historical data...
Loading historical data...
Loading historical data...
Loading historical data...
Other satellites on launch #48 in the year 2018 (2018-06-02 UTC)

CZ-2D DEB Visibility forecast

Observer location: undefined°, undefined°

Span
Click to sort rows by Start time (UTC) header in descending order
Start Az.
Max El. time (UTC)
Max El. Az.
Max El.
End time (UTC)
End Az.
6 mins2025-05-09 11:53:01.252Z183.611° SSW2025-05-09 11:56:01.252Z266.863° W39.861°2025-05-09 11:59:01.252Z335.223° NNW
5 mins2025-05-10 01:09:01.252Z342.107° N2025-05-10 01:11:01.252Z298.388° NW28.424°2025-05-10 01:14:01.252Z231.732° WSW
|